Notices

What's New in latest Release from April 7th, 2021:

- Updated Glossary, including Speed of Maximum Gust, and Total Hourly Precipitation

- Updated national and regional climate services offices contacts and prices information

- Addition of station inventory lists for 1981-2010, 1971-2000, and 1961-1990 Normals.

If you haven't already, please take our survey and provide feedback about our website: https://eccc.sondage-survey.ca/f/LanguageSelection.aspx?s=442ca660-fcf1-47c0-95a9-59707d6fd709

Hourly Data Report for March 18, 2003

TORONTO CITY
ONTARIO

43°40'00.000" N
79°24'00.000" W
112.50 m
6158355
71508
XTO

Download Data

Hourly Data (March 2003)
Hourly Data Report for March 18, 2003
TIME
LST
Temp Definition
°C
Dew Point Definition
°C
Rel Hum Definition
%
Precip. Amount Definition
mm

Wind Dir Definition
10's deg

Wind Spd Definition
km/h
Visibility Definition
km
Stn Press Definition
kPa
Hmdx Definition


Wind Chill Definition


Weather Definition


00:00 7.7 7.0 95   LegendMM LegendMM LegendMM 99.71     LegendNANA
01:00 7.2 6.5 95   LegendMM LegendMM LegendMM 99.76     LegendNANA
02:00 7.1 6.1 93   LegendMM LegendMM LegendMM 99.78     LegendNANA
03:00 7.2 5.4 88   LegendMM LegendMM LegendMM 99.79     LegendNANA
04:00 7.2 4.5 83   LegendMM LegendMM LegendMM 99.84     LegendNANA
05:00 7.1 3.5 78   LegendMM LegendMM LegendMM 99.91     LegendNANA
06:00 7.3 2.8 73   LegendMM LegendMM LegendMM 99.96     LegendNANA
07:00 6.8 1.7 70   LegendMM LegendMM LegendMM 100.06     LegendNANA
08:00 6.6 0.7 66   LegendMM LegendMM LegendMM 100.15     LegendNANA
09:00 6.7 0.6 65   LegendMM LegendMM LegendMM 100.22     LegendNANA
10:00 7.7 0.4 60   LegendMM LegendMM LegendMM 100.28     LegendNANA
11:00 9.2 0.4 54   LegendMM LegendMM LegendMM 100.29     LegendNANA
12:00 9.9 0.3 51   LegendMM LegendMM LegendMM 100.28     LegendNANA
13:00 7.7 0.4 60   LegendMM LegendMM LegendMM 100.30     LegendNANA
14:00 6.4 -0.4 62   LegendMM LegendMM LegendMM 100.30     LegendNANA
15:00 5.6 -0.5 65   LegendMM LegendMM LegendMM 100.33     LegendNANA
16:00 5.9 -1.4 59   LegendMM LegendMM LegendMM 100.32     LegendNANA
17:00 5.5 -1.7 60   LegendMM LegendMM LegendMM 100.33     LegendNANA
18:00 5.5 -2.4 57   LegendMM LegendMM LegendMM 100.37     LegendNANA
19:00 4.4 -2.5 61   LegendMM LegendMM LegendMM 100.45     LegendNANA
20:00 4.4 -3.5 56   LegendMM LegendMM LegendMM 100.51     LegendNANA
21:00 3.7 -3.7 58   LegendMM LegendMM LegendMM 100.60     LegendNANA
22:00 3.3 -3.2 62   LegendMM LegendMM LegendMM 100.68     LegendNANA
23:00 3.6 -4.2 57   LegendMM LegendMM LegendMM 100.74     LegendNANA

Notes on Data Quality.

Legend

  • E = Estimated
  • M = Missing
  • NA = Not Available*
  • [empty] = Indicates an unobserved value
Date modified: